DW6358 Weather Reports


Display with metric or nautical units.
time (UTC)temp
F
wind
direction
speed
MPH
gust
MPH
rain 1hr
in
rain 24hr
in
rain mn
in
humidity
%
barometer
mb
20260508141841 68 6 7.0 15.0 0.00 0.00 0.00 56 1013.9
20260508141318 68 160 8.0 15.0 0.00 0.00 0.00 55 1014.0
20260508140814 68 150 7.0 18.0 0.00 0.00 0.00 57 1014.1
20260508140332 68 176 9.0 18.0 0.00 0.00 0.00 55 1014.1
20260508135850 68 236 5.0 15.0 0.00 0.00 0.00 58 1014.2
20260508135327 68 168 8.0 15.0 0.00 0.00 0.00 54 1014.3
20260508134827 69 167 6.0 16.0 0.00 0.00 0.00 54 1014.3
20260508134324 68 219 9.0 16.0 0.00 0.00 0.00 55 1014.2
20260508133822 67 150 8.0 17.0 0.00 0.00 0.00 60 1014.2
20260508133443 67 160 6.0 17.0 0.00 0.00 0.00 66 1014.2
20260508132826 68 203 8.0 17.0 0.00 0.00 0.00 61 1014.2
20260508132323 69 192 8.0 16.0 0.00 0.00 0.00 52 1014.2
20260508131841 69 254 9.0 16.0 0.00 0.00 0.00 50 1014.0
20260508131318 69 195 8.0 16.0 0.00 0.00 0.00 50 1014.1
20260508130815 70 214 9.0 16.0 0.00 0.00 0.00 50 1014.2
20260508130313 69 50 8.0 19.0 0.00 0.00 0.00 50 1014.2
20260508125816 69 172 9.0 20.0 0.00 0.00 0.00 50 1014.3
20260508125325 69 231 7.0 20.0 0.00 0.00 0.00 51 1014.4
20260508124841 69 162 8.0 15.0 0.00 0.00 0.00 51 1014.3
20260508124318 69 155 8.0 14.0 0.00 0.00 0.00 51 1014.4
20260508123816 69 210 6.0 18.0 0.00 0.00 0.00 50 1014.5
20260508123314 68 192 9.0 18.0 0.00 0.00 0.00 50 1014.6
20260508122821 68 144 8.0 18.0 0.00 0.00 0.00 48 1014.7
20260508122339 68 167 8.0 18.0 0.00 0.00 0.00 51 1014.8
20260508121816 67 219 8.0 18.0 0.00 0.00 0.00 48 1014.8
20260508121331 67 195 9.0 17.0 0.00 0.00 0.00 51 1014.8
20260508120849 67 163 8.0 16.0 0.00 0.00 0.00 56 1014.9
20260508120323 67 160 6.0 12.0 0.00 0.00 0.00 58 1015.0
20260508115825 67 105 4.0 14.0 0.00 0.00 0.00 57 1014.9
20260508115324 67 120 5.0 14.0 0.00 0.00 0.00 58 1015.0
20260508114821 67 220 5.0 12.0 0.00 0.00 0.00 58 1015.1
20260508114320 67 180 6.0 13.0 0.00 0.00 0.00 58 1015.1
20260508113839 68 204 6.0 17.0 0.00 0.00 0.00 56 1015.1
20260508113335 67 139 6.0 16.0 0.00 0.00 0.00 55 1015.3
20260508112830 67 312 6.0 16.0 0.00 0.00 0.00 55 1015.2
20260508112328 67 143 8.0 16.0 0.00 0.00 0.00 53 1015.3
20260508111825 67 146 10.0 16.0 0.00 0.00 0.00 52 1015.4
20260508111340 67 171 7.0 14.0 0.00 0.00 0.00 53 1015.2
20260508110837 66 211 7.0 17.0 0.00 0.00 0.00 55 1015.4
20260508110334 66 162 9.0 16.0 0.00 0.00 0.00 55 1015.5
20260508105829 66 236 7.0 15.0 0.00 0.00 0.00 57 1015.5
20260508105347 65 202 7.0 13.0 0.00 0.00 0.00 59 1015.6
20260508104844 65 237 8.0 13.0 0.00 0.00 0.00 60 1015.7
20260508104322 64 132 4.0 12.0 0.00 0.00 0.00 63 1015.7
20260508103819 64 215 7.0 11.0 0.00 0.00 0.00 65 1015.9
20260508103338 65 359 2.0 11.0 0.00 0.00 0.00 65 1015.8
20260508102813 65 214 6.0 11.0 0.00 0.00 0.00 59 1015.8
20260508102331 65 193 4.0 11.0 0.00 0.00 0.00 59 1015.8
20260508101828 65 155 5.0 11.0 0.00 0.00 0.00 58 1015.8
20260508101327 65 184 4.0 14.0 0.00 0.00 0.00 59 1015.9
20260508100820 65 192 5.0 14.0 0.00 0.00 0.00 60 1015.9
20260508100317 65 221 7.0 13.0 0.00 0.00 0.00 60 1015.8
20260508095814 65 198 5.0 14.0 0.00 0.00 0.00 60 1015.8
20260508095331 65 185 4.0 9.0 0.00 0.00 0.00 60 1015.7
20260508094830 64 207 4.0 12.0 0.00 0.00 0.00 62 1015.8
20260508094327 64 140 7.0 13.0 0.00 0.00 0.00 61 1015.9
20260508093825 64 115 5.0 12.0 0.00 0.00 0.00 62 1015.9
20260508093323 64 259 5.0 12.0 0.00 0.00 0.00 61 1015.9
20260508092840 64 204 6.0 12.0 0.00 0.00 0.00 61 1015.9
20260508092314 63 214 6.0 12.0 0.00 0.00 0.00 64 1016.0
20260508091812 63 155 4.0 12.0 0.00 0.00 0.00 65 1016.1
20260508091330 63 164 5.0 12.0 0.00 0.00 0.00 65 1016.1
20260508090848 63 248 6.0 11.0 0.00 0.00 0.00 64 1016.1
20260508090326 63 150 5.0 12.0 0.00 0.00 0.00 65 1016.1
20260508085846 63 101 6.0 12.0 0.00 0.00 0.00 64 1016.0
20260508085322 63 198 3.0 10.0 0.00 0.00 0.00 66 1016.0
20260508084821 63 217 3.0 12.0 0.00 0.00 0.00 68 1016.1
20260508084318 62 269 5.0 12.0 0.00 0.00 0.00 68 1016.1
20260508083816 62 158 4.0 8.0 0.00 0.00 0.00 69 1016.1
20260508083315 62 81 3.0 7.0 0.00 0.00 0.00 70 1016.2
20260508082831 61 226 4.0 7.0 0.00 0.00 0.00 70 1016.1
20260508082327 61 132 4.0 5.0 0.00 0.00 0.00 71 1016.1
20260508081825 60 285 1.0 5.0 0.00 0.00 0.00 72 1016.1
20260508081321 60 278 1.0 7.0 0.00 0.00 0.00 72 1016.2
20260508080818 59 295 3.0 7.0 0.00 0.00 0.00 72 1016.1
20260508080335 59 133 3.0 6.0 0.00 0.00 0.00 74 1016.2
20260508075827 59 136 3.0 6.0 0.00 0.00 0.00 75 1016.1
20260508075343 58 164 1.0 5.0 0.00 0.00 0.00 75 1016.2
20260508074821 58 130 2.0 7.0 0.00 0.00 0.00 76 1016.2
20260508074319 58 250 4.0 7.0 0.00 0.00 0.00 77 1016.2
20260508073816 58 271 1.0 5.0 0.00 0.00 0.00 78 1016.1
20260508073314 58 140 2.0 5.0 0.00 0.00 0.00 80 1016.2
20260508072851 57 236 1.0 4.0 0.00 0.00 0.00 82 1016.3
20260508072326 57 141 2.0 5.0 0.00 0.00 0.00 82 1016.2
20260508071824 56 213 2.0 5.0 0.00 0.00 0.00 82 1016.2
20260508071320 56 193 2.0 6.0 0.00 0.00 0.00 83 1016.1
20260508070818 56 342 1.0 5.0 0.00 0.00 0.00 83 1016.1
20260508070316 56 280 1.0 4.0 0.00 0.00 0.00 83 1016.1
20260508065813 56 251 2.0 4.0 0.00 0.00 0.00 83 1016.0
20260508065331 56 333 0.0 4.0 0.00 0.00 0.00 83 1015.9
20260508064827 56 328 1.0 5.0 0.00 0.00 0.00 83 1015.9
20260508064326 55 333 2.0 5.0 0.00 0.00 0.00 83 1015.9
20260508063824 55 332 1.0 5.0 0.00 0.00 0.00 83 1016.0
20260508063323 55 330 1.0 4.0 0.00 0.00 0.00 83 1015.9
20260508062840 55 164 1.0 4.0 0.00 0.00 0.00 83 1015.9
20260508062319 55 116 1.0 3.0 0.00 0.00 0.00 83 1015.9
20260508061830 55 310 1.0 3.0 0.00 0.00 0.00 83 1015.8
20260508061329 55 322 1.0 3.0 0.00 0.00 0.00 83 1015.8
20260508060827 55 311 1.0 3.0 0.00 0.00 0.00 83 1015.8
20260508060327 55 38 1.0 3.0 0.00 0.00 0.00 83 1015.8
20260508055824 55 333 1.0 3.0 0.00 0.00 0.00 83 1015.7
20260508055341 55 122 1.0 3.0 0.00 0.00 0.00 83 1015.6
20260508054817 55 297 0.0 3.0 0.00 0.00 0.00 83 1015.5
20260508054316 55 323 0.0 3.0 0.00 0.00 0.00 83 1015.5
20260508053814 55 283 1.0 3.0 0.00 0.00 0.00 83 1015.5
20260508053333 55 333 0.0 3.0 0.00 0.00 0.00 83 1015.5
20260508052829 55 129 1.0 3.0 0.00 0.00 0.00 83 1015.4
20260508052349 55 295 0.0 3.0 0.00 0.00 0.00 84 1015.4
20260508051825 55 303 1.0 6.0 0.00 0.00 0.00 84 1015.4
20260508051324 55 354 1.0 6.0 0.00 0.00 0.00 84 1015.3
20260508050822 55 323 1.0 3.0 0.00 0.00 0.00 84 1015.3
20260508050357 55 338 0.0 3.0 0.00 0.00 0.00 83 1015.2
20260508045814 55 346 1.0 3.0 0.00 0.00 0.00 83 1015.1
20260508045330 55 340 0.0 3.0 0.00 0.00 0.00 82 1015.0
20260508044828 55 40 1.0 2.0 0.00 0.00 0.00 82 1015.1
20260508044325 55 330 0.0 3.0 0.00 0.00 0.00 82 1015.1
20260508043823 56 307 1.0 4.0 0.00 0.00 0.00 82 1015.2
20260508043341 55 160 2.0 5.0 0.00 0.00 0.00 82 1015.3
20260508042816 55 2 2.0 5.0 0.00 0.00 0.00 81 1015.3
20260508042312 55 105 3.0 7.0 0.00 0.00 0.00 80 1015.4
20260508041851 55 53 3.0 9.0 0.00 0.00 0.00 80 1015.4
20260508041329 55 159 4.0 9.0 0.00 0.00 0.00 80 1015.3
20260508040824 55 168 2.0 5.0 0.00 0.00 0.00 81 1015.4
20260508040324 55 298 1.0 4.0 0.00 0.00 0.00 81 1015.3
20260508035820 55 131 1.0 4.0 0.00 0.00 0.00 80 1015.2
20260508035318 55 355 1.0 4.0 0.00 0.00 0.00 80 1015.3
20260508034816 55 338 1.0 4.0 0.00 0.00 0.00 80 1015.4
20260508034314 55 354 0.0 4.0 0.00 0.00 0.00 80 1015.4
20260508033831 55 165 1.0 4.0 0.00 0.00 0.00 79 1015.4
20260508033331 55 317 1.0 3.0 0.00 0.00 0.00 79 1015.4
20260508032827 55 347 1.0 4.0 0.00 0.00 0.00 79 1015.3
20260508032348 55 1 1.0 4.0 0.00 0.00 0.00 79 1015.2
20260508031824 55 332 1.0 4.0 0.00 0.00 0.00 79 1015.2
20260508031324 55 263 2.0 5.0 0.00 0.00 0.00 79 1015.2
20260508030822 55 13 2.0 5.0 0.00 0.00 0.00 79 1015.2
20260508030321 55 299 1.0 4.0 0.00 0.00 0.00 79 1015.3
20260508025818 55 323 1.0 4.0 0.00 0.00 0.00 79 1015.4
20260508025316 55 276 1.0 4.0 0.00 0.00 0.00 79 1015.5
20260508024813 55 321 2.0 4.0 0.00 0.00 0.00 79 1015.5
20260508024332 55 278 2.0 4.0 0.00 0.00 0.00 79 1015.5
20260508023328 55 16 2.0 5.0 0.00 0.00 0.00 79 1015.5
20260508022840 55 324 1.0 4.0 0.00 0.00 0.00 79 1015.6
20260508022317 55 83 1.0 3.0 0.00 0.00 0.00 79 1015.7
20260508021814 55 339 1.0 4.0 0.00 0.00 0.00 79 1015.8
20260508021351 56 347 1.0 4.0 0.00 0.00 0.00 78 1015.7
20260508020828 56 17 1.0 4.0 0.00 0.00 0.00 78 1015.8
20260508020339 56 352 1.0 4.0 0.00 0.00 0.00 78 1015.8
20260508015822 56 314 1.0 4.0 0.00 0.00 0.00 78 1015.9
20260508015321 56 27 1.0 4.0 0.00 0.00 0.00 78 1015.9
20260508014819 56 343 1.0 4.0 0.00 0.00 0.00 78 1016.0
20260508014313 56 74 1.0 4.0 0.00 0.00 0.00 78 1016.1
20260508013812 56 3 1.0 4.0 0.00 0.00 0.00 78 1016.0
20260508013331 56 297 1.0 4.0 0.00 0.00 0.00 78 1016.1
20260508012826 56 15 1.0 4.0 0.00 0.00 0.00 78 1016.1
20260508012324 56 302 1.0 3.0 0.00 0.00 0.00 78 1016.2
20260508011820 56 292 1.0 3.0 0.00 0.00 0.00 77 1016.3
20260508011339 56 131 1.0 5.0 0.00 0.00 0.00 77 1016.4
20260508010814 56 11 1.0 4.0 0.00 0.00 0.00 76 1016.4
20260508010332 57 285 1.0 2.0 0.00 0.00 0.00 76 1016.5
20260508005827 57 344 0.0 2.0 0.00 0.00 0.00 75 1016.6
20260508005324 57 127 1.0 2.0 0.00 0.00 0.00 75 1016.6
20260508004819 57 332 0.0 1.0 0.00 0.00 0.00 75 1016.6
20260508004317 58 335 0.0 1.0 0.00 0.00 0.00 74 1016.6
20260508003816 58 335 0.0 1.0 0.00 0.00 0.00 74 1016.6
20260508003314 58 284 0.0 2.0 0.00 0.00 0.00 73 1016.6
20260508002829 58 271 1.0 2.0 0.00 0.00 0.00 72 1016.7
20260508002327 58 303 0.0 2.0 0.00 0.00 0.00 72 1016.8
20260508001842 58 313 0.0 2.0 0.00 0.00 0.00 72 1016.6
20260508001319 58 328 0.0 3.0 0.00 0.00 0.00 72 1016.5
20260508000837 58 323 0.0 4.0 0.00 0.00 0.00 73 1016.5
20260508000315 58 314 1.0 4.0 0.00 0.00 0.00 72 1016.5
20260507235839 58 335 1.0 3.0 0.00 0.00 0.00 72 1016.6
20260507235316 58 316 1.0 3.0 0.00 0.00 0.00 72 1016.6
20260507234834 58 336 1.0 3.0 0.00 0.00 0.00 71 1016.6
20260507234329 58 329 0.0 2.0 0.00 0.00 0.00 71 1016.6
20260507233846 58 327 0.0 2.0 0.00 0.00 0.00 71 1016.8
20260507233324 58 302 0.0 2.0 0.00 0.00 0.00 72 1016.8
20260507232821 58 324 0.0 4.0 0.00 0.00 0.00 72 1016.8
20260507232318 58 303 0.0 2.0 0.00 0.00 0.00 73 1016.9
20260507231816 58 303 1.0 2.0 0.00 0.00 0.00 72 1016.9
20260507231313 58 322 0.0 2.0 0.00 0.00 0.00 72 1017.0
20260507230830 59 332 0.0 4.0 0.00 0.00 0.00 73 1017.0
20260507230328 58 326 3.0 4.0 0.00 0.00 0.00 72 1016.8
20260507225838 59 327 0.0 1.0 0.00 0.00 0.00 71 1016.9
20260507225315 59 327 0.0 3.0 0.00 0.00 0.00 71 1017.1
20260507224814 59 327 2.0 3.0 0.00 0.00 0.00 71 1016.9
20260507224313 59 330 1.0 4.0 0.00 0.00 0.00 72 1016.9
20260507223813 59 317 2.0 6.0 0.00 0.00 0.00 72 1016.9
20260507222829 59 324 4.0 6.0 0.00 0.00 0.00 73 1016.9
20260507222326 59 325 4.0 6.0 0.00 0.00 0.00 72 1017.1
20260507221823 59 340 3.0 6.0 0.00 0.00 0.00 72 1017.2
20260507221338 59 330 3.0 6.0 0.00 0.00 0.00 72 1017.3
20260507220814 59 327 5.0 6.0 0.00 0.00 0.00 71 1017.4
20260507220314 59 354 4.0 5.0 0.00 0.00 0.00 72 1017.4
20260507215818 59 322 4.0 6.0 0.00 0.00 0.00 71 1017.4
20260507215315 59 326 5.0 7.0 0.00 0.00 0.00 69 1017.4
20260507214852 59 326 5.0 6.0 0.00 0.00 0.00 70 1017.5
20260507214329 59 341 3.0 6.0 0.00 0.00 0.00 70 1017.5
20260507213826 59 316 5.0 6.0 0.00 0.00 0.00 71 1017.4
20260507213325 59 340 3.0 5.0 0.00 0.00 0.00 72 1017.6
20260507212842 59 334 2.0 4.0 0.00 0.00 0.00 71 1017.9
20260507212319 59 324 1.0 3.0 0.00 0.00 0.00 72 1017.9
20260507211818 59 326 0.0 3.0 0.00 0.00 0.00 71 1018.0
20260507211316 59 345 2.0 6.0 0.00 0.00 0.00 72 1017.8
20260507210813 59 351 2.0 6.0 0.00 0.00 0.00 70 1017.8
20260507210333 59 334 2.0 5.0 0.00 0.00 0.00 72 1017.8
20260507205830 59 350 2.0 6.0 0.00 0.00 0.00 72 1017.7
20260507205328 59 309 1.0 6.0 0.00 0.00 0.00 71 1017.7
20260507204826 59 360 2.0 6.0 0.00 0.00 0.00 71 1017.8
20260507204324 59 342 3.0 6.0 0.00 0.00 0.00 71 1017.7
20260507203823 59 10 2.0 6.0 0.00 0.00 0.00 71 1017.7
20260507203322 59 342 4.0 6.0 0.00 0.00 0.00 71 1017.7
20260507202819 59 342 2.0 6.0 0.00 0.00 0.00 73 1017.6
20260507202316 59 312 4.0 6.0 0.00 0.00 0.00 73 1017.6
20260507201814 59 343 4.0 9.0 0.00 0.00 0.00 73 1017.4
20260507201332 59 11 4.0 9.0 0.00 0.00 0.00 73 1017.4
20260507200831 59 333 3.0 5.0 0.00 0.00 0.00 72 1017.4
20260507200329 59 316 2.0 5.0 0.00 0.00 0.00 72 1017.5
20260507195827 59 321 2.0 5.0 0.00 0.00 0.00 72 1017.5
20260507195407 59 343 1.0 7.0 0.00 0.00 0.00 71 1017.4
20260507194819 59 6 4.0 8.0 0.00 0.00 0.00 73 1017.4
20260507194336 59 13 4.0 8.0 0.00 0.00 0.00 73 1017.3
20260507193830 59 352 4.0 6.0 0.00 0.00 0.00 72 1017.3
20260507193330 59 314 3.0 7.0 0.00 0.00 0.00 72 1017.2
20260507192825 59 354 4.0 7.0 0.00 0.00 0.00 71 1017.2
20260507192322 59 325 2.0 6.0 0.00 0.00 0.00 72 1017.2
20260507191841 59 345 2.0 6.0 0.00 0.00 0.00 72 1017.2
20260507191318 60 349 2.0 4.0 0.00 0.00 0.00 72 1017.2
20260507190816 60 336 2.0 6.0 0.00 0.00 0.00 71 1017.1
20260507190356 60 359 2.0 6.0 0.00 0.00 0.00 70 1017.1
20260507185813 60 26 3.0 6.0 0.00 0.00 0.00 70 1017.1
20260507185330 60 338 3.0 6.0 0.00 0.00 0.00 71 1017.1
20260507184828 60 321 2.0 7.0 0.00 0.00 0.00 70 1017.1
20260507184347 60 333 2.0 7.0 0.00 0.00 0.00 70 1017.1
20260507183843 60 356 4.0 7.0 0.00 0.00 0.00 69 1017.0
20260507183320 61 322 4.0 7.0 0.00 0.00 0.00 69 1017.1
20260507182835 61 6 2.0 6.0 0.00 0.00 0.00 68 1017.0
20260507182314 61 326 1.0 7.0 0.00 0.00 0.00 68 1017.0
20260507181831 61 323 3.0 7.0 0.00 0.00 0.00 68 1017.1
20260507181348 61 32 2.0 6.0 0.00 0.00 0.00 67 1017.1
20260507180842 61 302 3.0 7.0 0.00 0.00 0.00 69 1017.0
20260507180320 61 314 4.0 7.0 0.00 0.00 0.00 68 1017.0
20260507175823 61 333 3.0 6.0 0.00 0.00 0.00 68 1017.0
20260507175323 61 328 3.0 6.0 0.00 0.00 0.00 67 1016.9
20260507174821 61 350 5.0 7.0 0.00 0.00 0.00 69 1016.9
20260507174318 61 346 3.0 7.0 0.00 0.00 0.00 69 1016.9
20260507173837 61 342 3.0 7.0 0.00 0.00 0.00 71 1016.9
20260507173331 61 323 5.0 7.0 0.00 0.00 0.00 72 1016.9
20260507172828 61 342 4.0 7.0 0.00 0.00 0.00 71 1017.0
20260507172328 61 339 5.0 7.0 0.00 0.00 0.00 72 1017.0
20260507171826 61 333 5.0 8.0 0.00 0.00 0.00 70 1017.0
20260507171324 61 335 4.0 8.0 0.00 0.00 0.00 72 1016.9
20260507170821 61 316 5.0 8.0 0.00 0.00 0.00 72 1016.9
20260507170340 61 351 5.0 8.0 0.00 0.00 0.00 71 1016.9
20260507165818 61 348 5.0 9.0 0.00 0.00 0.00 72 1016.9
20260507165313 61 314 6.0 7.0 0.00 0.00 0.00 72 1016.9
20260507164831 61 316 6.0 8.0 0.00 0.00 0.00 72 1017.0
20260507164329 61 326 6.0 8.0 0.00 0.00 0.00 70 1017.0
20260507163844 61 3 5.0 9.0 0.00 0.00 0.00 72 1016.9
20260507163322 61 321 7.0 9.0 0.00 0.00 0.00 72 1016.9
20260507162840 62 320 7.0 9.0 0.00 0.00 0.00 69 1016.8
20260507162315 62 305 5.0 9.0 0.00 0.00 0.00 70 1016.9
20260507161813 62 321 5.0 9.0 0.00 0.00 0.00 71 1016.9
20260507160826 62 345 5.0 10.0 0.00 0.00 0.00 71 1017.0
20260507160326 62 336 7.0 10.0 0.00 0.00 0.00 72 1017.0
20260507155822 62 354 6.0 10.0 0.00 0.00 0.00 71 1017.0
20260507155318 62 335 7.0 10.0 0.00 0.00 0.00 70 1017.0
20260507154815 62 349 6.0 10.0 0.00 0.00 0.00 71 1016.9
20260507154353 62 339 6.0 10.0 0.00 0.00 0.00 70 1016.9
20260507153850 63 348 6.0 8.0 0.00 0.00 0.00 70 1017.0
20260507153328 62 295 5.0 9.0 0.00 0.00 0.00 70 1017.0
20260507152826 62 347 6.0 9.0 0.00 0.00 0.00 70 1017.0
20260507152324 63 335 5.0 9.0 0.00 0.00 0.00 69 1017.0
20260507151822 63 347 7.0 9.0 0.00 0.00 0.00 69 1017.1
20260507151319 63 352 5.0 9.0 0.00 0.00 0.00 71 1017.1
20260507150819 63 335 5.0 10.0 0.00 0.00 0.00 70 1017.1
20260507150338 63 332 6.0 10.0 0.00 0.00 0.00 69 1017.3
20260507145831 63 314 5.0 9.0 0.00 0.00 0.00 70 1017.3
20260507145329 63 6 4.0 9.0 0.00 0.00 0.00 70 1017.3
20260507144827 62 345 6.0 9.0 0.00 0.00 0.00 70 1017.2
20260507144324 62 324 6.0 8.0 0.00 0.00 0.00 70 1017.3
20260507143822 63 340 5.0 10.0 0.00 0.00 0.00 70 1017.3
20260507143321 63 8 5.0 10.0 0.00 0.00 0.00 71 1017.4
20260507142818 62 345 6.0 8.0 0.00 0.00 0.00 71 1017.5
20260507142316 63 332 5.0 8.0 0.00 0.00 0.00 70 1017.5